[ ตารางข้อมูล ] [ Min-Max ] [ วันนี้4 ] [ วันนี้2 ] [ เทียบ3วัน A ] [ เทียบ4วัน B ]   

วันนี้2   [ ◀ ช่วงเก่ากว่า ] [ ช่วงที่ 288 ] [ ช่วงใหม่กว่า ▶ ] [ ล่าสุด ]    [ 3 ชั่วโมง ] [ 6 ชั่วโมง ] [ 12 ชั่วโมง ] [ 24 ชั่วโมง ]   วันนี้2

อุณภูมิตู้ Knockdown4529  ราย 3 ชั่วโมง  ที่วัดได้ ในช่วงวันเวลา 02/04/2026 (04:25) ถึง 02/04/2026 (07:25) 
ความชื้นในตู้ Knockdown4529  ราย 3 ชั่วโมง  ที่วัดได้ ในช่วงวันเวลา 02/04/2026 (04:25) ถึง 02/04/2026 (07:25) 

 
DS18B20SHTC3 
IDDate d/m/Y & Timedata1
สูง
data2
ต่ำ
data3
นอก
temp
pcb
hum
pcb
Time
 8047  02/04/2026 07:21:48  27.4  27.4  26.5  27.2  73.1  07:21 
 8046  02/04/2026 07:17:06  27.4  27.4  26.3  27.2  73.1  07:17 
 8045  02/04/2026 07:12:24  27.4  27.4  26.2  27.3  73.3  07:12 
 8044  02/04/2026 07:07:43  27.4  27.4  26.2  27.2  73.3  07:07 
 8043  02/04/2026 07:03:00  27.4  27.4  26.0  27.2  73.3  07:03 
 8042  02/04/2026 06:58:18  27.4  27.4  25.9  27.2  73.3  06:58 
 8041  02/04/2026 06:53:37  27.4  27.4  25.6  27.1  73.3  06:53 
 8040  02/04/2026 06:48:55  27.4  27.4  25.7  27.4  73.3  06:48 
 8039  02/04/2026 06:44:13  27.4  27.4  25.5  27.1  73.3  06:44 
 8038  02/04/2026 06:39:32  27.4  27.4  25.6  27.1  73.2  06:39 
 8037  02/04/2026 06:34:50  27.4  27.5  25.8  27.1  73.2  06:34 
 8036  02/04/2026 06:30:09  27.5  27.5  25.7  27.3  73.2  06:30 
 8035  02/04/2026 06:25:27  27.5  27.5  25.7  27.4  73.4  06:25 
 8034  02/04/2026 06:20:46  27.5  27.5  25.7  27.2  73.3  06:20 
 8033  02/04/2026 06:16:03  27.5  27.6  25.9  27.4  73.3  06:16 
 8032  02/04/2026 06:11:22  27.6  27.6  25.9  27.4  73.3  06:11 
 8031  02/04/2026 06:06:40  27.6  27.6  25.9  27.3  73.3  06:06 
 8030  02/04/2026 06:01:59  27.6  27.6  25.9  27.4  73.3  06:01 
 8029  02/04/2026 05:57:17  27.6  27.6  25.9  27.5  73.3  05:57 
 8028  02/04/2026 05:52:35  27.6  27.6  25.9  27.4  73.3  05:52 
 8027  02/04/2026 05:47:53  27.7  27.6  25.8  27.4  73.3  05:47 
 8026  02/04/2026 05:43:11  27.6  27.7  25.9  27.5  73.3  05:43 
 8025  02/04/2026 05:38:29  27.7  27.7  25.9  27.5  73.4  05:38 
 8024  02/04/2026 05:33:47  27.8  27.7  25.9  27.6  73.3  05:33 

Data every 5 minute.


ใช้เวลาประมวลผล 0.00204 วินาที